Regional Weather Roundup
Issued by NWS

Home | Current Version | Previous Version | Text Only | Print | Product List | Glossary Off
Versions: 1 2 3 4 5 6 7 8 9 10 11 12 13 14 15 16 17 18 19 20 21 22 23 24 25 26 27 28 29 30 31 32 33 34 35 36 37 38 39 40 41 42 43 44 45 46 47 48 49 50

687
ASUS44 KLIX 291811
RWRLA
LOUISIANA WEATHER ROUNDUP
NATIONAL WEATHER SERVICE NEW ORLEANS LA
100 PM CDT SUN MAR 29 2015

NOTE: "FAIR" INDICATES FEW OR NO CLOUDS BELOW 12,000 FEET WITH NO
      SIGNIFICANT WEATHER AND/OR OBSTRUCTIONS TO VISIBILITY.
      SKY/WX - SKY CONDITION AND SIGNIFICANT WEATHER.
      TMP - AIR TEMPERATURE.    DP   - DEWPOINT TEMPERATURE.
      RH  - RELATIVE HUMIDITY.  PRES - PRESSURE.
      HX  - HEAT INDEX.         WCI  - WIND CHILL INDEX.

*  THESE STATIONS ARE NOT NWS OR FAA STATIONS AND ARE NOT UNDER
   NWS QUALITY CONTROL.

LAZ040-048-061>063-065-066-069-291900-
SOUTHEAST LOUISIANA

CITY           SKY/WX    TMP DP  RH WIND       PRES   REMARKS
N.O. AUDUBON   NOT AVBL
N.O. INTL ARPT PTSUNNY   75  59  57 S10G17    30.27F
6HR MIN TEMP:  56; 6HR MAX TEMP:  75;

N.O. LAKEFRONT MOSUNNY   77  59  53 SE10      30.27F
6HR MIN TEMP:  58; 6HR MAX TEMP:  77;

SLIDELL        PTSUNNY   72  57  59 SE12G21   30.28F
6HR MIN TEMP:  46; 6HR MAX TEMP:  73;

BATON ROUGE    PTSUNNY   76  59  55 SW12G23   30.24F
6HR MIN TEMP:  48; 6HR MAX TEMP:  77;

BOOTHVILLE     SUNNY     72  60  66 SE14G22   30.30F
6HR MIN TEMP:  57; 6HR MAX TEMP:  72;

BELLE CHASSE   MOSUNNY   73  60  63 SE10      30.27F
6HR MIN TEMP:  56; 6HR MAX TEMP:  73;

BOGALUSA*        N/A     75  56  51 S14       30.29F
6HR MIN TEMP:  46; 6HR MAX TEMP:  75;

GALLIANO*      MOCLDY    76  62  62 SE7       30.28F
6HR MIN TEMP:  62; 6HR MAX TEMP:  77;

NEW ROADS*     CLOUDY    73  59  62 SE10      30.24F
6HR MIN TEMP:  51; 6HR MAX TEMP:  73;

GONZALES*      FAIR      76  60  57 S10       30.25F
6HR MIN TEMP:  55; 6HR MAX TEMP:  76;

HAMMOND*       MOSUNNY   75  55  50 S13       30.28F
HOUMA*         MOSUNNY   75  63  64 S9        30.27F
PORT FOURCHON* CLEAR     72  64  78 SE13G21   30.31S

$$

LAZ041-044-053-054-291900-
SOUTHWEST LOUISIANA

CITY           SKY/WX    TMP DP  RH WIND       PRES   REMARKS
LAKE CHARLES   SUNNY     76  62  62 SW17G25   30.22F
6HR MIN TEMP:  55; 6HR MAX TEMP:  77;

LAFAYETTE      MOSUNNY   77  60  55 S12G23    30.23F
6HR MIN TEMP:  55; 6HR MAX TEMP:  78;

PATTERSON      MOSUNNY   75  61  60 SW10G18   30.25F
6HR MIN TEMP:  55; 6HR MAX TEMP:  75;

SALT POINT       N/A     74  62  66 VRB6      30.24F
6HR MIN TEMP:  58; 6HR MAX TEMP:  74;

NEW IBERIA     PTSUNNY   76  61  59 S14       30.25F
6HR MIN TEMP:  55; 6HR MAX TEMP:  78;

CHENAULT AIRPK PTSUNNY   75  61  60 SW15G24     N/A

$$

LAZ027-028-291900-
CENTRAL LOUISIANA

CITY           SKY/WX    TMP DP  RH WIND       PRES   REMARKS
FORT POLK      MOSUNNY   77  60  54 S14G21    30.16F
6HR MIN TEMP:  56; 6HR MAX TEMP:  77;

ALEXANDRIA INT MOSUNNY   76  59  55 S15       30.17F
6HR MIN TEMP:  57; 6HR MAX TEMP:  76;

ALEXANDRIA     MOSUNNY   74  60  61 S14       30.20F
6HR MIN TEMP:  54; 6HR MAX TEMP:  75;


$$

LAZ001-002-291900-
NORTHWEST LOUISIANA

CITY           SKY/WX    TMP DP  RH WIND       PRES   REMARKS
SHREVEPORT     SUNNY     78  56  46 S15G23    30.09F
6HR MIN TEMP:  51; 6HR MAX TEMP:  78;

BARKSDALE AFB  SUNNY     76  57  50 S16G23    30.09F
6HR MIN TEMP:  49; 6HR MAX TEMP:  76;

DTN SHREVEPORT SUNNY     76  57  51 S15G23    30.10F
6HR MIN TEMP:  51; 6HR MAX TEMP:  76;


$$

LAZ014-016-291900-
NORTHEAST LOUISIANA

CITY           SKY/WX    TMP DP  RH WIND       PRES   REMARKS
MONROE         SUNNY     75  58  55 SW14G22   30.16F
6HR MIN TEMP:  50; 6HR MAX TEMP:  75;

TALLULAH       SUNNY     70  52  52 S15G22    30.21F
6HR MIN TEMP:  46; 6HR MAX TEMP:  70;


$$




USA.gov is the U.S. government's official web portal to all federal, state and local government web resources and services.